Location: Caltech
(34.1382°N, 118.1253°W)
Time: 16:50:32
(UTC-07:00)

Iridium 75 - Visible Passes

Search period start: 22 July 2014 00:00
Search period end: 01 August 2014 00:00
Orbit: 776 x 779 km, 86.4° (Epoch: 22 July)

Date Brightness Start Highest point End Pass type
(mag) Time Alt. Az. Time Alt. Az. Time Alt. Az.
22 Jul 8.4 00:25:07 14° NE 00:25:07 14° NE 00:26:25 10° NE visible
22 Jul 7.6 02:05:35 28° NNW 02:05:35 28° NNW 02:08:19 10° NNW visible
23 Jul 7.5 01:32:13 33° N 01:32:13 33° N 01:35:02 10° N visible
24 Jul 7.8 00:58:51 28° NNE 00:58:51 28° NNE 01:01:22 10° NNE visible
24 Jul 8.4 02:39:20 12° NW 02:39:20 12° NW 02:40:15 10° NW visible
25 Jul 8.2 00:25:28 18° NE 00:25:28 18° NE 00:27:15 10° NNE visible
25 Jul 8.0 02:05:57 20° NW 02:05:57 20° NW 02:08:03 10° NNW visible
25 Jul 8.6 23:52:05 10° NE 23:52:05 10° NE 23:52:10 10° NE visible
26 Jul 7.8 01:32:34 28° NNW 01:32:34 28° NNW 01:35:03 10° N visible
27 Jul 7.8 00:59:10 28° N 00:59:10 28° N 01:01:36 10° N visible
28 Jul 8.1 00:25:47 22° NNE 00:25:47 22° NNE 00:27:47 10° NNE visible
28 Jul 8.4 02:06:15 14° NW 02:06:15 14° NW 02:07:30 10° NNW visible
28 Jul 8.4 23:52:23 14° NE 23:52:23 14° NE 23:53:24 10° NE visible
29 Jul 8.1 01:32:51 22° NNW 01:32:51 22° NNW 01:34:53 10° NNW visible
30 Jul 7.9 00:59:27 26° N 00:59:27 26° N 01:01:42 10° N visible
31 Jul 8.0 00:26:02 24° NNE 00:26:02 24° NNE 00:28:07 10° N visible
31 Jul 8.3 23:52:37 17° NE 23:52:37 17° NE 23:54:06 10° NNE visible
